Hourly Data Report for June 06, 2021

MANIWAKI AIRPORT
QUEBEC
Current Station Operator: ECCC - MSC

46°16'29.000" N
75°59'31.000" W
199.70 m
7034482
71721
WMJ

Download Data

Hourly Data (June 2021)
Hourly Data Report for June 6, 2021
TIME
LST
Temp Definition
°C
Dew Point Definition
°C
Rel Hum Definition
%
Precip. Amount Definition
mm

Wind Dir Definition
10's deg

Wind Spd Definition
km/h
Visibility Definition
km
Stn Press Definition
kPa
Hmdx Definition


Wind Chill Definition


Weather Definition


00:00 14.7 14.5 99 0.0 23 2   98.71     LegendNANA
01:00 15.0 14.9 99 0.0 19 3   98.73     LegendNANA
02:00 14.7 14.6 99 0.0 24 4   98.70     LegendNANA
03:00 14.0 13.9 99 0.0 20 5   98.69     LegendNANA
04:00 13.1 13.0 99 0.0 0 1   98.72     LegendNANA
05:00 13.5 13.4 99 0.0 11 2   98.75     LegendNANA
06:00 16.4 16.2 99 0.0   0   98.82     LegendNANA
07:00 18.8 16.9 89 0.0 20 2   98.81     LegendNANA
08:00 21.2 17.9 81 0.0 17 4   98.84 27   LegendNANA
09:00 23.2 16.7 67 0.0 22 8   98.85 28   LegendNANA
10:00 24.8 17.0 62 0.0 22 8   98.80 30   LegendNANA
11:00 26.3 17.9 60 0.0 18 10   98.83 32   LegendNANA
12:00 28.9 19.5 57 0.0 22 5   98.76 36   LegendNANA
13:00 30.2 19.2 52 0.0 21 19   98.74 37   LegendNANA
14:00 30.4 19.0 51 0.0 23 20   98.71 37   LegendNANA
15:00 30.9 19.1 49 0.0 22 19   98.67 38   LegendNANA
16:00 31.0 19.1 49 0.0 22 15   98.63 38   LegendNANA
17:00 29.0 19.1 55 0.0 23 10   98.64 36   LegendNANA
18:00 29.9 19.0 52 0.0 20 9   98.64 37   LegendNANA
19:00 28.6 19.5 58 0.0 21 6   98.67 36   LegendNANA
20:00 25.4 19.3 69 0.0 21 6   98.74 32   LegendNANA
21:00 24.3 18.9 72 0.0 21 10   98.80 31   LegendNANA
22:00 23.2 17.6 71 0.0 22 10   98.81 29   LegendNANA
23:00 22.1 16.4 70 0.0 20 8   98.83 27   LegendNANA

Notes on Data Quality.

Legend

  • E = Estimated
  • M = Missing
  • NA = Not Available*
  • [empty] = Indicates an unobserved value
Date modified: